User: anonymous   Login
Location: Unspecified
(0.0000°N, 0.0000°E)
Time: 00:19:30
(UTC+00:00)
Language:

DNEPR OBJECT AB - Orbit

View from above orbital plane
View from above orbital plane
View from above satellite
View from above satellite

Ground track
Ground track

The orbit data is extracted from the following two-line orbital elements,

1 39441U 13066AB  17231.01838800  .00000191  00000-0  34187-4 0  9997
2 39441  97.6237 257.5024 0083683 100.1864 260.8797 14.74640789201248
Epoch (UTC): 19 August 2017 00:26:28
Eccentricity: 0.0083683
inclination: 97.6237°
perigee height: 587 km
apogee height: 705 km
right ascension of ascending node: 257.5024°
argument of perigee: 100.1864°
revolutions per day: 14.74640789
mean anomaly at epoch: 260.8797°
orbit number at epoch: 20124

The dashed part of the orbit path shows where the satellite is in the earth's shadow,  

DLR